This demonstration page uses our WeatherBlox Daily Observations layout. Learn more.

Left ArrowRight Arrow

39.92423, -83.80882

Hourly Observations for March 31, 2022

Temp ( °F °C ) Dew Point ( °F °C ) Humidity (%) Winds ( mph kmh ) Pressure ( in mb ) Visibility ( mi km ) Precip ( " mm )
12:56 am 00:56 Cloudy 72 22.2 45 7.2 38 38 SSW 18 30 29.34 994 10 16 0.00 0.00
1:56 am 01:56 Cloudy with Light Rain 65 18.3 53 11.7 66 66 SW 29 46 29.37 995 10 16 0.00 0.00
2:56 am 02:56 Cloudy with Light Rain 61 16.1 53 11.7 75 75 SSW 20 31 29.38 995 10 16 0.00 0.00
3:56 am 03:56 Cloudy 59 15 57 13.9 93 93 S 18 30 29.32 993 10 16 0.00 0.00
4:16 am 04:16 Cloudy 61 16 57 14 88 88 SSW 26 43 29.31 992 10 16 0.00 0.00
4:56 am 04:56 Cloudy 60 15.6 56 13.3 86 86 SSW 23 37 29.33 993 10 16 0.00 0.00
5:21 am 05:21 Mostly Cloudy 61 16 54 12 77 77 SSW 22 35 29.34 993 10 16 0.00 0.00
5:52 am 05:52 Mostly Cloudy 59 15 54 12 82 82 SSW 22 35 29.33 993 10 16 0.00 0.00
5:56 am 05:56 Mostly Cloudy 59 15 54 12.2 83 83 SSW 23 37 29.33 993 10 16 0.00 0.00
6:19 am 06:19 Mostly Cloudy 59 15 54 12 82 82 SSW 20 31 29.33 993 10 16 0.00 0.00
6:56 am 06:56 Cloudy 59 15 52 11.1 78 78 SW 21 33 29.34 994 10 16 0.00 0.00
7:31 am 07:31 Cloudy 59 15 54 12 82 82 SSW 13 20 29.35 994 10 16 0.00 0.00
7:56 am 07:56 Cloudy 58 14.4 53 11.7 84 84 SSW 21 33 29.34 994 10 16 0.00 0.00
8:56 am 08:56 Cloudy with Light Rain 53 11.7 53 11.7 100 100 WSW 22 35 29.40 996 10 16 0.00 0.00
9:56 am 09:56 Cloudy 50 10 49 9.4 96 96 WSW 22 35 29.43 997 10 16 0.00 0.00
10:56 am 10:56 Cloudy 47 8.3 46 7.8 97 97 WSW 23 37 29.48 998 10 16 0.00 0.00
11:56 am 11:56 Cloudy 46 7.8 43 6.1 89 89 WSW 22 35 29.50 999 10 16 0.00 0.00
12:56 pm 12:56 Cloudy 45 7.2 42 5.6 90 90 WSW 23 37 29.51 999 10 16 0.00 0.00
1:56 pm 13:56 Cloudy 44 6.7 40 4.4 85 85 W 20 31 29.54 1000 10 16 0.00 0.00
2:56 pm 14:56 Cloudy 43 6.1 39 3.9 86 86 W 17 28 29.55 1001 10 16 0.00 0.00
3:56 pm 15:56 Cloudy 43 6.1 36 2.2 76 76 WSW 20 31 29.55 1001 10 16 0.00 0.00
4:56 pm 16:56 Cloudy 42 5.6 37 2.8 82 82 WSW 21 33 29.55 1001 10 16 0.00 0.00
5:56 pm 17:56 Cloudy 41 5 39 3.9 93 93 WSW 16 26 29.58 1002 10 16 0.00 0.00
6:10 pm 18:10 Cloudy 41 5 36 2 81 81 WSW 17 28 29.61 1003 10 16 0.00 0.00
6:56 pm 18:56 Cloudy 40 4.4 35 1.7 83 83 W 24 39 29.61 1003 10 16 0.00 0.00
7:56 pm 19:56 Cloudy 40 4.4 35 1.7 83 83 W 17 28 29.64 1004 10 16 0.00 0.00
8:47 pm 20:47 Cloudy 39 4 34 1 81 81 W 20 31 29.69 1005 10 16 0.00 0.00
8:56 pm 20:56 Cloudy 39 3.9 34 1.1 82 82 W 16 26 29.68 1005 10 16 0.00 0.00
9:21 pm 21:21 Cloudy with Light Rain 39 4 36 2 87 87 WSW 17 28 29.72 1006 10 16 0.00 0.00
9:56 pm 21:56 Cloudy with Light Rain 38 3.3 38 3.3 100 100 WSW 16 26 29.71 1006 10 16 0.00 0.00
10:39 pm 22:39 Cloudy with Light Rain 37 3 N/A N/A WSW 14 22 29.75 1007 10 16 0.00 0.00
10:56 pm 22:56 Cloudy with Light Rain 37 3 N/A N/A WSW 13 20 29.72 1007 10 16 0.00 0.00
11:11 pm 23:11 Cloudy with Light Rain 37 3 N/A N/A WSW 13 20 29.74 1007 10 16 0.00 0.00
11:27 pm 23:27 Cloudy with Light Rain 37 3 N/A N/A WSW 17 28 29.75 1007 10 16 0.00 0.00
11:56 pm 23:56 Cloudy with Light Rain 36 2 N/A N/A W 17 28 29.74 1007 10 16 0.00 0.00

Powered by AerisWeather